TimeEDT,TemperatureF,Dew PointF,Humidity,Sea Level PressureIn,VisibilityMPH,Wind Direction,Wind SpeedMPH,Gust SpeedMPH,PrecipitationIn,Events,Conditions,WindDirDegrees,DateUTC
12:15 AM,62.6,60.8,94,29.96,5.0,Calm,Calm,-,N/A,,Clear,0,2013-06-18 04:15:00
12:35 AM,60.8,60.8,100,29.95,2.5,Calm,Calm,-,N/A,,Clear,0,2013-06-18 04:35:00
12:55 AM,62.6,60.8,94,29.94,2.5,Calm,Calm,-,N/A,,Clear,0,2013-06-18 04:55:00
1:15 AM,62.6,60.8,94,29.94,5.0,Calm,Calm,-,N/A,,Clear,0,2013-06-18 05:15:00
1:35 AM,62.6,60.8,94,29.93,5.0,Calm,Calm,-,N/A,,Clear,0,2013-06-18 05:35:00
1:55 AM,62.6,60.8,94,29.93,4.0,Calm,Calm,-,N/A,,Clear,0,2013-06-18 05:55:00
2:15 AM,62.6,62.6,100,29.92,5.0,Calm,Calm,-,N/A,,Clear,0,2013-06-18 06:15:00
2:35 AM,62.6,62.6,100,29.92,4.0,Calm,Calm,-,N/A,,Clear,0,2013-06-18 06:35:00
2:55 AM,60.8,59.0,94,29.92,4.0,Calm,Calm,-,N/A,,Clear,0,2013-06-18 06:55:00
3:15 AM,60.8,59.0,94,29.91,5.0,Calm,Calm,-,N/A,,Clear,0,2013-06-18 07:15:00
3:35 AM,60.8,60.8,100,29.90,2.0,Calm,Calm,-,N/A,,Clear,0,2013-06-18 07:35:00
3:55 AM,60.8,60.8,100,29.90,3.0,Calm,Calm,-,N/A,,Clear,0,2013-06-18 07:55:00
4:15 AM,60.8,59.0,94,29.91,2.5,Calm,Calm,-,N/A,,Scattered Clouds,0,2013-06-18 08:15:00
4:35 AM,60.8,59.0,94,29.91,5.0,Calm,Calm,-,N/A,,Scattered Clouds,0,2013-06-18 08:35:00
4:55 AM,62.6,62.6,100,29.92,10.0,Calm,Calm,-,N/A,,Partly Cloudy,0,2013-06-18 08:55:00
5:15 AM,62.6,60.8,94,29.92,6.0,West,3.5,-,N/A,,Mostly Cloudy,280,2013-06-18 09:15:00
5:35 AM,62.6,60.8,94,29.92,8.0,Calm,Calm,-,N/A,,Mostly Cloudy,0,2013-06-18 09:35:00
5:55 AM,60.8,60.8,100,29.92,5.0,Calm,Calm,-,N/A,,Scattered Clouds,0,2013-06-18 09:55:00
6:15 AM,60.8,60.8,100,29.93,3.0,Calm,Calm,-,N/A,,Scattered Clouds,0,2013-06-18 10:15:00
6:35 AM,62.6,60.8,94,29.92,5.0,Calm,Calm,-,N/A,,Partly Cloudy,0,2013-06-18 10:35:00
6:55 AM,62.6,60.8,94,29.92,4.0,Calm,Calm,-,N/A,Thunderstorm,Clear,0,2013-06-18 10:55:00
7:15 AM,62.6,62.6,100,29.93,7.0,Calm,Calm,-,N/A,Thunderstorm,Clear,0,2013-06-18 11:15:00
7:35 AM,62.6,62.6,100,29.93,6.0,Calm,Calm,-,N/A,,Partly Cloudy,0,2013-06-18 11:35:00
7:55 AM,62.6,62.6,100,29.93,7.0,Calm,Calm,-,N/A,,Partly Cloudy,0,2013-06-18 11:55:00
8:15 AM,64.4,62.6,94,29.93,6.0,Calm,Calm,-,N/A,,Clear,0,2013-06-18 12:15:00
8:35 AM,64.4,62.6,94,29.93,10.0,NW,3.5,-,N/A,,Clear,320,2013-06-18 12:35:00
8:55 AM,64.4,62.6,94,29.93,10.0,NNW,4.6,-,N/A,,Clear,340,2013-06-18 12:55:00
9:15 AM,66.2,62.6,88,29.92,10.0,North,3.5,-,N/A,,Clear,360,2013-06-18 13:15:00
9:35 AM,66.2,62.6,88,29.94,10.0,NW,5.8,-,N/A,,Clear,320,2013-06-18 13:35:00
9:55 AM,66.2,60.8,83,29.93,10.0,North,3.5,-,N/A,,Clear,360,2013-06-18 13:55:00
10:15 AM,68.0,62.6,83,29.92,10.0,North,4.6,-,N/A,,Clear,350,2013-06-18 14:15:00
10:35 AM,68.0,62.6,83,29.91,10.0,Calm,Calm,-,N/A,,Clear,0,2013-06-18 14:35:00
10:55 AM,69.8,62.6,78,29.92,10.0,Calm,Calm,-,N/A,,Clear,0,2013-06-18 14:55:00
11:15 AM,69.8,62.6,78,29.92,10.0,Calm,Calm,-,N/A,,Clear,0,2013-06-18 15:15:00
11:35 AM,69.8,62.6,78,29.93,10.0,Calm,Calm,-,N/A,,Clear,0,2013-06-18 15:35:00
11:55 AM,69.8,64.4,83,29.93,10.0,Calm,Calm,-,N/A,,Clear,0,2013-06-18 15:55:00
12:15 PM,69.8,64.4,83,29.93,10.0,Calm,Calm,-,N/A,,Clear,0,2013-06-18 16:15:00
12:35 PM,69.8,64.4,83,29.92,10.0,Calm,Calm,-,N/A,,Clear,0,2013-06-18 16:35:00
12:55 PM,71.6,66.2,83,29.92,10.0,SE,3.5,-,N/A,,Clear,140,2013-06-18 16:55:00
1:15 PM,71.6,64.4,78,29.93,10.0,SE,4.6,-,N/A,,Scattered Clouds,130,2013-06-18 17:15:00
1:35 PM,71.6,64.4,78,29.93,10.0,ESE,4.6,-,N/A,,Overcast,120,2013-06-18 17:35:00
1:55 PM,71.6,64.4,78,29.93,10.0,SE,6.9,-,N/A,,Mostly Cloudy,140,2013-06-18 17:55:00
2:15 PM,73.4,66.2,78,29.92,10.0,South,6.9,-,N/A,,Partly Cloudy,190,2013-06-18 18:15:00
2:35 PM,73.4,64.4,73,29.91,10.0,SSE,5.8,-,N/A,,Partly Cloudy,150,2013-06-18 18:35:00
2:55 PM,73.4,66.2,78,29.90,10.0,SE,6.9,-,N/A,Thunderstorm,Mostly Cloudy,130,2013-06-18 18:55:00
3:15 PM,71.6,64.4,78,29.90,10.0,SSE,6.9,-,N/A,Thunderstorm,Thunderstorm,150,2013-06-18 19:15:00
3:35 PM,69.8,62.6,78,29.91,10.0,WSW,6.9,-,N/A,Thunderstorm,Thunderstorm,240,2013-06-18 19:35:00
3:55 PM,66.2,64.4,94,29.91,8.0,SSW,8.1,-,N/A,Thunderstorm,Thunderstorm,210,2013-06-18 19:55:00
4:15 PM,66.2,64.4,94,29.90,5.0,South,3.5,-,N/A,Thunderstorm,Overcast,180,2013-06-18 20:15:00
4:35 PM,68.0,66.2,94,29.90,10.0,South,4.6,-,N/A,,Mostly Cloudy,190,2013-06-18 20:35:00
4:55 PM,66.2,64.4,94,29.90,10.0,SW,4.6,-,N/A,,Mostly Cloudy,220,2013-06-18 20:55:00
5:15 PM,66.2,64.4,94,29.90,10.0,WNW,3.5,-,N/A,,Mostly Cloudy,300,2013-06-18 21:15:00
5:35 PM,68.0,66.2,94,29.90,10.0,SSW,3.5,-,N/A,,Mostly Cloudy,200,2013-06-18 21:35:00
5:55 PM,69.8,66.2,88,29.90,10.0,SSW,4.6,-,N/A,,Mostly Cloudy,200,2013-06-18 21:55:00
6:15 PM,69.8,66.2,88,29.90,10.0,SSW,4.6,-,N/A,,Mostly Cloudy,210,2013-06-18 22:15:00
6:35 PM,69.8,66.2,88,29.90,10.0,SSW,6.9,-,N/A,,Mostly Cloudy,200,2013-06-18 22:35:00
6:55 PM,69.8,64.4,83,29.90,10.0,SSW,5.8,-,N/A,,Scattered Clouds,200,2013-06-18 22:55:00
7:15 PM,69.8,64.4,83,29.91,10.0,South,3.5,-,N/A,,Mostly Cloudy,190,2013-06-18 23:15:00
7:35 PM,68.0,64.4,88,29.91,10.0,Calm,Calm,-,N/A,,Overcast,0,2013-06-18 23:35:00
7:55 PM,69.8,64.4,83,29.91,10.0,Calm,Calm,-,N/A,,Mostly Cloudy,0,2013-06-18 23:55:00
8:15 PM,68.0,64.4,88,29.92,10.0,SW,3.5,-,N/A,,Mostly Cloudy,220,2013-06-19 00:15:00
8:35 PM,66.2,64.4,94,29.92,10.0,WSW,3.5,-,N/A,,Mostly Cloudy,240,2013-06-19 00:35:00
8:55 PM,66.2,64.4,94,29.93,10.0,WSW,3.5,-,N/A,,Mostly Cloudy,250,2013-06-19 00:55:00
9:15 PM,66.2,64.4,94,29.94,10.0,WSW,5.8,-,N/A,,Mostly Cloudy,250,2013-06-19 01:15:00
9:35 PM,66.2,64.4,94,29.94,10.0,WSW,4.6,-,N/A,,Overcast,250,2013-06-19 01:35:00
9:55 PM,66.2,62.6,88,29.96,10.0,West,6.9,-,N/A,,Overcast,270,2013-06-19 01:55:00
10:15 PM,66.2,60.8,83,29.96,10.0,West,8.1,-,N/A,,Overcast,270,2013-06-19 02:15:00
10:35 PM,66.2,59.0,78,29.97,10.0,WNW,5.8,-,N/A,,Overcast,290,2013-06-19 02:35:00
10:55 PM,64.4,59.0,83,29.97,10.0,West,6.9,-,N/A,,Overcast,280,2013-06-19 02:55:00
11:15 PM,64.4,57.2,77,29.97,10.0,WNW,8.1,-,N/A,,Overcast,290,2013-06-19 03:15:00
11:35 PM,64.4,57.2,77,29.98,10.0,West,5.8,-,N/A,,Overcast,280,2013-06-19 03:35:00
11:55 PM,62.6,57.2,82,29.99,10.0,WNW,5.8,-,N/A,,Overcast,290,2013-06-19 03:55:00